CW9861 Weather Reports


time (UTC)temp
C
wind
direction
speed
KPH
gust
KPH
rain 1hr
cm
rain 24hr
cm
rain mn
cm
humidity
%
barometer
mb
20260506212457 11 341 4.8 22.5 0.00 0.00 0.00 43 1010.7
20260506211957 11 320 6.4 22.5 0.00 0.00 0.00 41 1010.7
20260506211457 12 283 4.8 17.7 0.00 0.00 0.00 41 1010.5
20260506210957 12 334 4.8 9.7 0.00 0.00 0.00 40 1010.6
20260506210457 12 302 6.4 12.9 0.00 0.00 0.00 42 1010.6
20260506205958 11 340 6.4 14.5 0.00 0.00 0.00 42 1010.9
20260506201958 12 271 6.4 17.7 0.00 0.00 0.00 44 1010.9
20260506201458 11 324 8.0 17.7 0.00 0.00 0.00 42 1010.9
20260506200958 12 349 3.2 16.1 0.00 0.00 0.00 43 1011.0
20260506200457 12 238 6.4 20.9 0.00 0.00 0.00 42 1010.9
20260506195957 12 245 8.0 22.5 0.00 0.00 0.00 42 1010.9
20260506195456 12 271 6.4 22.5 0.00 0.00 0.00 43 1011.0
20260506194957 11 334 6.4 17.7 0.00 0.00 0.00 43 1011.2
20260506194456 12 266 4.8 19.3 0.00 0.00 0.00 43 1011.1
20260506193957 11 305 3.2 19.3 0.00 0.00 0.00 44 1011.0
20260506193457 11 212 6.4 19.3 0.00 0.00 0.00 43 1011.0
20260506192956 12 194 4.8 17.7 0.00 0.00 0.00 43 1011.0
20260506192457 12 318 6.4 14.5 0.00 0.00 0.00 43 1011.1
20260506191956 12 290 6.4 16.1 0.00 0.00 0.00 45 1011.0
20260506191457 11 252 6.4 17.7 0.00 0.00 0.00 43 1010.9
20260506190956 12 290 6.4 17.7 0.00 0.00 0.00 45 1011.1
20260506190457 12 321 4.8 14.5 0.00 0.00 0.00 44 1011.1
20260506185957 12 305 3.2 11.3 0.00 0.00 0.00 44 1011.0
20260506185457 12 296 4.8 20.9 0.00 0.00 0.00 42 1011.2
20260506184956 12 242 9.7 19.3 0.00 0.00 0.00 43 1011.1
20260506184457 12 276 4.8 12.9 0.00 0.00 0.00 43 1011.1
20260506183956 12 240 4.8 14.5 0.00 0.00 0.00 42 1010.9
20260506183457 13 234 6.4 24.1 0.00 0.00 0.00 42 1011.1
20260506182958 13 214 9.7 24.1 0.00 0.00 0.00 44 1011.0
20260506182457 12 297 6.4 19.3 0.00 0.00 0.00 44 1011.1
20260506181957 11 207 4.8 14.5 0.00 0.00 0.00 44 1011.0
20260506181457 11 276 4.8 16.1 0.00 0.00 0.00 44 1011.1
20260506180956 11 308 6.4 16.1 0.00 0.00 0.00 43 1011.0
20260506180457 11 296 6.4 12.9 0.00 0.00 0.00 47 1011.1
20260506175959 11 301 4.8 9.7 0.00 0.00 0.00 46 1011.0
20260506175458 11 276 3.2 14.5 0.00 0.00 0.00 48 1011.0
20260506174957 11 257 4.8 14.5 0.00 0.00 0.00 48 1011.0
20260506174458 11 310 3.2 19.3 0.00 0.00 0.00 47 1011.1
20260506173958 11 291 6.4 14.5 0.00 0.00 0.00 46 1011.3
20260506173458 11 307 4.8 8.0 0.00 0.00 0.00 46 1011.3
20260506172958 11 294 3.2 9.7 0.00 0.00 0.00 47 1011.3
20260506172458 11 309 4.8 12.9 0.00 0.00 0.00 48 1011.3
20260506171959 11 240 6.4 12.9 0.00 0.00 0.00 46 1011.4
20260506171457 10 232 3.2 12.9 0.00 0.00 0.00 47 1011.5
20260506170958 11 295 4.8 9.7 0.00 0.00 0.00 46 1011.5
20260506170458 11 299 4.8 14.5 0.00 0.00 0.00 47 1011.5
20260506165958 11 297 4.8 8.0 0.00 0.00 0.00 46 1011.5
20260506165457 11 290 3.2 9.7 0.00 0.00 0.00 47 1011.4
20260506164957 11 242 3.2 9.7 0.00 0.00 0.00 45 1011.4
20260506145958 10 297 4.8 9.7 0.00 0.00 0.00 50 1011.6
20260506145457 11 295 1.6 6.4 0.00 0.00 0.00 48 1011.6
20260506144957 10 306 3.2 6.4 0.00 0.00 0.00 50 1011.5
20260506144458 9 134 3.2 6.4 0.00 0.00 0.00 48 1011.5
20260506143958 10 55 3.2 8.0 0.00 0.00 0.00 53 1011.2
20260506143457 9 101 1.6 4.8 0.00 0.00 0.00 57 1011.3
20260506135457 8 105 1.6 8.0 0.00 0.00 0.00 67 1011.3
20260506134957 8 61 3.2 8.0 0.00 0.00 0.00 66 1011.2
20260506134457 7 132 3.2 8.0 0.00 0.00 0.00 68 1011.1
20260506133957 7 68 4.8 8.0 0.00 0.00 0.00 67 1011.0
20260506133458 7 91 1.6 6.4 0.00 0.00 0.00 69 1011.0
20260506132957 7 316 1.6 9.7 0.00 0.00 0.00 68 1011.1
20260506132458 7 338 1.6 8.0 0.00 0.00 0.00 69 1011.0
20260506131957 7 95 3.2 8.0 0.00 0.00 0.00 69 1011.0
20260506131457 6 73 4.8 8.0 0.00 0.00 0.00 69 1011.1
20260506130958 6 45 3.2 8.0 0.00 0.00 0.00 70 1011.2
20260506130457 6 29 1.6 8.0 0.00 0.00 0.00 70 1011.3
20260506125957 6 77 3.2 8.0 0.00 0.00 0.00 71 1011.3
20260506125457 6 76 3.2 8.0 0.00 0.00 0.00 71 1011.2
20260506121956 3 83 3.2 6.4 0.00 0.00 0.00 80 1010.9
20260506121456 2 351 0.0 6.4 0.00 0.00 0.00 81 1010.8
20260506120957 2 49 1.6 8.0 0.00 0.00 0.00 81 1010.7
20260506120456 2 73 1.6 8.0 0.00 0.00 0.00 82 1010.6
20260506115957 2 67 3.2 6.4 0.00 0.00 0.00 82 1010.6
20260506115457 1 15 1.6 4.8 0.00 0.00 0.00 82 1010.4
20260506114957 1 41 0.0 3.2 0.00 0.00 0.00 81 1010.3
20260506114457 1 309 0.0 3.2 0.00 0.00 0.00 81 1010.2
20260506113957 1 309 0.0 3.2 0.00 0.00 0.00 81 1010.1
20260506113457 1 309 0.0 3.2 0.00 0.00 0.00 81 1009.9
20260506112959 1 313 0.0 1.6 0.00 0.00 0.00 80 1009.8
20260506112457 1 311 0.0 1.6 0.00 0.00 0.00 80 1009.9
20260506111956 1 316 0.0 1.6 0.00 0.00 0.00 79 1009.8
20260506111456 1 305 0.0 0.0 0.00 0.00 0.00 79 1009.6
20260506110956 1 305 0.0 3.2 0.00 0.00 0.00 79 1009.6
20260506110457 1 305 0.0 3.2 0.00 0.00 0.00 78 1009.6
20260506105957 1 291 0.0 1.6 0.00 0.00 0.00 78 1009.7
20260506105457 1 291 0.0 1.6 0.00 0.00 0.00 78 1009.8
20260506104956 1 291 0.0 3.2 0.00 0.00 0.00 78 1009.7
20260506104456 1 291 0.0 3.2 0.00 0.00 0.00 78 1009.7
20260506100458 2 311 0.0 1.6 0.00 0.00 0.00 75 1009.3
20260506095956 2 311 0.0 3.2 0.00 0.00 0.00 75 1009.2
20260506095457 2 311 1.6 3.2 0.00 0.00 0.00 74 1009.1
20260506094957 2 300 1.6 3.2 0.00 0.00 0.00 74 1009.1
20260506094456 2 286 0.0 4.8 0.00 0.00 0.00 74 1009.1
20260506093956 2 287 1.6 4.8 0.00 0.00 0.00 74 1009.0
20260506093457 2 303 1.6 4.8 0.00 0.00 0.00 74 1008.9
20260506092956 2 314 0.0 4.8 0.00 0.00 0.00 74 1008.7
20260506092457 2 315 0.0 4.8 0.00 0.00 0.00 73 1008.5
20260506091956 2 312 0.0 4.8 0.00 0.00 0.00 73 1008.5
20260506091457 3 311 1.6 3.2 0.00 0.00 0.00 73 1008.5
20260506090956 3 314 0.0 3.2 0.00 0.00 0.00 73 1008.5
20260506090456 3 287 0.0 1.6 0.00 0.00 0.00 73 1008.5
20260506085957 3 286 0.0 3.2 0.00 0.00 0.00 72 1008.4
20260506085456 3 286 0.0 3.2 0.00 0.00 0.00 73 1008.4
20260506084956 3 311 0.0 3.2 0.00 0.00 0.00 73 1008.5
20260506084457 3 311 0.0 3.2 0.00 0.00 0.00 73 1008.5
20260506083958 3 310 0.0 3.2 0.00 0.00 0.00 73 1008.4
20260506083456 3 311 0.0 0.0 0.00 0.00 0.00 74 1008.4
20260506082957 3 311 0.0 0.0 0.00 0.00 0.00 74 1008.4
20260506082457 3 302 0.0 0.0 0.00 0.00 0.00 74 1008.4
20260506081958 3 302 0.0 0.0 0.00 0.00 0.00 74 1008.4
20260506081457 3 302 0.0 1.6 0.00 0.00 0.00 74 1008.4
20260506080958 3 302 0.0 3.2 0.00 0.00 0.00 74 1008.6
20260506080457 3 302 1.6 3.2 0.00 0.00 0.00 74 1008.5
20260506073456 3 302 0.0 0.0 0.00 0.00 0.00 72 1008.6
20260506072957 3 302 0.0 0.0 0.00 0.00 0.00 72 1008.5
20260506072456 3 302 0.0 1.6 0.00 0.00 0.00 72 1008.5
20260506071956 3 302 0.0 1.6 0.00 0.00 0.00 71 1008.7
20260506071456 4 302 0.0 0.0 0.00 0.00 0.00 71 1008.6
20260506070957 4 302 0.0 0.0 0.00 0.00 0.00 71 1008.4
20260506070456 4 302 0.0 0.0 0.00 0.00 0.00 70 1008.5
20260506062457 5 302 0.0 1.6 0.00 0.00 0.00 69 1008.8
20260506061956 5 302 0.0 1.6 0.00 0.00 0.00 69 1008.7
20260506061456 5 302 0.0 1.6 0.00 0.00 0.00 69 1008.7
20260506060957 5 295 0.0 1.6 0.00 0.00 0.00 69 1008.8
20260506060456 5 295 0.0 0.0 0.00 0.00 0.00 69 1008.8
20260506050956 5 266 0.0 3.2 0.00 0.00 0.00 67 1008.6
20260506050456 6 262 0.0 3.2 0.00 0.00 0.00 66 1008.8
20260506044957 6 313 1.6 6.4 0.00 0.00 0.00 66 1008.4
20260506044457 6 340 1.6 6.4 0.00 0.00 0.00 65 1008.2
20260506043957 6 299 1.6 3.2 0.00 0.00 0.00 66 1008.1
20260506043458 6 302 0.0 1.6 0.00 0.00 0.00 66 1008.2
20260506042957 6 299 0.0 3.2 0.00 0.00 0.00 65 1008.1
20260506042457 6 299 0.0 3.2 0.00 0.00 0.00 66 1008.1
20260506041957 6 297 1.6 4.8 0.00 0.00 0.00 66 1008.3
20260506041457 6 288 1.6 4.8 0.00 0.00 0.00 65 1008.3
20260506040957 6 292 0.0 3.2 0.00 0.00 0.00 65 1008.3
20260506040458 6 266 0.0 4.8 0.00 0.00 0.00 65 1008.3
20260506035958 6 266 1.6 4.8 0.00 0.00 0.00 65 1008.1
20260506035457 6 271 0.0 3.2 0.00 0.00 0.00 65 1008.1
20260506034957 6 271 0.0 3.2 0.00 0.00 0.00 64 1008.1
20260506034458 6 326 0.0 4.8 0.00 0.00 0.00 64 1007.8
20260506033957 6 315 0.0 0.0 0.00 0.00 0.00 64 1007.9
20260506033457 6 315 0.0 0.0 0.00 0.00 0.00 63 1008.0
20260506032957 6 315 0.0 1.6 0.00 0.00 0.00 63 1008.1
20260506032457 6 315 0.0 3.2 0.00 0.00 0.00 63 1008.3
20260506031957 6 317 0.0 3.2 0.00 0.00 0.00 62 1008.2
20260506031457 6 311 0.0 1.6 0.00 0.00 0.00 61 1008.3
20260506030958 6 311 0.0 1.6 0.00 0.00 0.00 61 1008.4
20260506030458 7 311 0.0 3.2 0.00 0.00 0.00 60 1008.1
20260506025957 7 311 0.0 3.2 0.00 0.00 0.00 60 1008.1
20260506025458 7 307 0.0 0.0 0.00 0.00 0.00 60 1007.9
20260506024957 7 307 0.0 0.0 0.00 0.00 0.00 59 1008.0
20260506024457 7 307 0.0 0.0 0.00 0.00 0.00 59 1008.0
20260506023957 7 307 0.0 1.6 0.00 0.00 0.00 58 1007.9
20260506023457 7 307 0.0 1.6 0.00 0.00 0.00 58 1007.8
20260506022957 7 300 0.0 3.2 0.00 0.00 0.00 57 1007.7
20260506022457 7 300 0.0 3.2 0.00 0.00 0.00 57 1007.9
20260506021957 7 300 0.0 4.8 0.00 0.00 0.00 57 1007.7
20260506021458 8 300 0.0 4.8 0.00 0.00 0.00 56 1007.6
20260506020957 8 296 0.0 4.8 0.00 0.00 0.00 56 1007.7
20260506020500 8 266 1.6 4.8 0.00 0.00 0.00 55 1007.6
20260506020000 8 308 1.6 4.8 0.00 0.00 0.00 55 1007.4
20260506015459 8 320 1.6 4.8 0.00 0.00 0.00 55 1007.3
20260506014959 8 271 1.6 4.8 0.00 0.00 0.00 55 1007.3
20260506014458 8 298 1.6 4.8 0.00 0.00 0.00 55 1007.3
20260506013958 8 304 0.0 4.8 0.00 0.00 0.00 54 1007.2
20260506013458 8 319 0.0 4.8 0.00 0.00 0.00 54 1007.2
20260506012958 8 298 3.2 4.8 0.00 0.00 0.00 54 1007.1
20260506012458 8 309 1.6 6.4 0.00 0.00 0.00 54 1007.1
20260506011958 9 324 1.6 6.4 0.00 0.00 0.00 54 1007.1
20260506011457 9 289 3.2 8.0 0.00 0.00 0.00 53 1007.1
20260506011000 9 322 3.2 8.0 0.00 0.00 0.00 53 1007.1
20260506010458 9 299 3.2 6.4 0.00 0.00 0.00 53 1006.9
20260506010001 9 322 1.6 6.4 0.00 0.00 0.00 53 1006.8
20260506005458 9 290 1.6 8.0 0.00 0.00 0.00 52 1006.7
20260506004958 10 251 1.6 8.0 0.00 0.00 0.00 52 1006.7
20260506004458 10 321 1.6 6.4 0.00 0.00 0.00 52 1006.7
20260506004000 10 289 1.6 6.4 0.00 0.00 0.00 52 1006.8
20260506003459 10 257 1.6 6.4 0.00 0.00 0.00 52 1006.7
20260506002959 10 290 3.2 6.4 0.00 0.00 0.00 51 1006.8
20260506002459 10 294 1.6 8.0 0.00 0.00 0.00 51 1006.8
20260506001958 10 318 4.8 6.4 0.00 0.00 0.00 51 1006.8
20260506001458 10 282 3.2 8.0 0.00 0.00 0.00 51 1006.7
20260506000958 10 266 1.6 6.4 0.00 0.00 0.00 52 1006.7
20260506000458 10 271 3.2 6.4 0.00 0.00 0.00 51 1006.6
20260505235958 10 306 3.2 8.0 0.00 0.00 0.00 51 1006.6
20260505235457 10 305 3.2 8.0 0.00 0.00 0.00 51 1006.7
20260505224957 11 305 3.2 9.7 0.00 0.00 0.00 47 1006.5
20260505224457 11 315 3.2 14.5 0.00 0.00 0.00 46 1006.4
20260505223956 11 308 4.8 14.5 0.00 0.00 0.00 46 1006.5
20260505223458 11 313 4.8 16.1 0.00 0.00 0.00 47 1006.6
20260505222958 11 285 4.8 16.1 0.00 0.00 0.00 45 1006.4
20260505222457 11 326 6.4 16.1 0.00 0.00 0.00 46 1006.6
20260505221957 11 307 4.8 16.1 0.00 0.00 0.00 46 1006.4
20260505221457 11 349 8.0 16.1 0.00 0.00 0.00 45 1006.4
20260505220957 11 305 6.4 17.7 0.00 0.00 0.00 45 1006.4
20260505220456 11 311 6.4 19.3 0.00 0.00 0.00 46 1006.4
20260505215957 11 341 6.4 20.9 0.00 0.00 0.00 46 1006.4
20260505215457 11 261 8.0 20.9 0.00 0.00 0.00 44 1006.5
20260505214957 11 289 4.8 17.7 0.00 0.00 0.00 45 1006.6
20260505214457 11 249 4.8 22.5 0.00 0.00 0.00 46 1006.6
20260505213957 11 316 6.4 24.1 0.00 0.00 0.00 44 1006.6
20260505213458 12 328 8.0 19.3 0.00 0.00 0.00 46 1006.6
20260505212957 11 292 8.0 17.7 0.00 0.00 0.00 43 1006.4